Weather in Novomikhaylovka

Russia / Oryol Oblast     53°07′31″N   37°22′29″E
temp.,
°C
wind,
m/s
gust,
m/s
humid.,
%
clouds,
%
prec.,
mm/h
press.,
hPa
HPBL,
m
14 april, wed
wed1400:00+13sse4106997 0.0 1021264
03:00+10sse4993100 0.0 1021195
06:00+9sse3593100 0.0 102079
09:00+13se357895 0.0 1020333
12:00+17se4657100 0.0 1018946
15:00+18se572932 0.0 10171923
18:00+17se4737100 0.0 1016210
21:00+13se3345100 0.0 101739
15 april, thu
thu1500:00+11ese3350100 0.0 101637
03:00+10se2253100 0.0 101611
06:00+10wsw1157100 0.0 101510
09:00+13se2456100 0.0 1015161
12:00+14e3354100 0.0 1015542
15:00+16ese6745100 0.0 10141744
18:00+15ene485099 0.0 1013250
21:00+13e5106776 0.7 1014283
16 april, fri
fri1600:00+11se3676100 0.1 1014106
03:00+10ese3379100 0.1 101548
06:00+9e4885100 0.2 1016170
09:00+11e3476100 0.4 1016315
12:00+12e3674100 0.3 1017451
15:00+12sse51076100 2.1 1018674
18:00+14ese466462 0.5 1017387
21:00+11e227195 1.5 101814
17 april, sat
sat1700:00+9ene348398 0.1 101970
03:00+9ne479592 0.6 1019179
06:00+8ne6995100 0.1 1020323
09:00+9ene71187100 0.3 1021509
12:00+14ene9116641 0.0 1020948
15:00+15ene10125829 0.0 10201352
18:00+14ene9146563 0.0 10201148
21:00+11e61174100 0.3 1022912
18 april, sun
sun1800:00+10ene5108598 0.3 1022587
03:00+8ene6108099 0.4 1023622
06:00+7ene597394 0.2 1024375
09:00+8ene6976100 0.3 1025442
12:00+11ene685579 0.0 1026869
15:00+13e684678 0.0 10261583
18:00+13ene574825 0.0 10261317
21:00+9ene411604 0.0 1027255